Regional Weather Roundup
Issued by NWS

Home | Current Version | Previous Version | Graphics & Text | Print | Product List | Glossary On
Versions: 1 2 3 4 5 6 7 8 9 10 11 12 13 14 15 16 17 18 19 20 21 22 23 24 25 26 27 28 29 30 31 32 33 34 35 36 37 38 39 40 41 42 43 44 45 46 47 48 49 50
040
ASUS43 KDMX 090706
RWRIA

WEATHER ROUNDUP FOR IOWA
NATIONAL WEATHER SERVICE DES MOINES IA
100 AM CST FRI DEC 09 2016

NOTE: "FAIR" INDICATES FEW OR NO CLOUDS BELOW 12,000 FEET WITH NO
SIGNIFICANT WEATHER AND/OR OBSTRUCTIONS TO VISIBILITY.

* - THESE STATIONS ARE NOT NWS STATIONS...THUS NOT UNDER NWS
QUALITY CONTROL.  THEY ALSO DO NOT REPORT WEATHER SUCH
AS PRECIPITATION OR FOG.

IAZ001>003-012>014-020>022-031>034-043>046-090800-
   NORTHWEST IOWA

CITY           SKY/WX    TMP DP  RH WIND       PRES   REMARKS
CARROLL *      CLEAR     12   7  79 NW10      30.60R WCI  -1
CHEROKEE *     CLEAR      7   4  89 CALM      30.61S
DENISON *      CLEAR     10   5  79 CALM      30.60R
LE MARS *      CLEAR      7   3  85 NW8       30.64S WCI  -6
ORANGE CITY *  CLEAR      7   3  85 NW10      30.59S WCI  -8
SHELDON *      CLEAR      5   3  92 W7        30.58R WCI  -7
SIOUX CITY     CLEAR     11   4  73 NW13      30.64S WCI  -4
SPENCER        CLEAR      7   3  84 W16       30.58R WCI -11
STORM LAKE *   CLEAR      9   5  85 NW10      30.58R WCI  -6
$$

IAZ055>058-069>071-079>083-090>094-090800-
   SOUTHWEST IOWA

CITY           SKY/WX    TMP DP  RH WIND       PRES   REMARKS
ATLANTIC *     CLEAR     12   7  79 NW8       30.62R WCI   1
AUDUBON *      CLEAR     10   7  85 NW6       30.59F WCI   1
CLARINDA *     CLEAR     14   9  79 NE5       30.66S WCI   6
COUNCIL BLFS * CLEAR     10   7  85 NW7       30.62F WCI   0
CRESTON *      CLEAR     10   7  85 NW9       30.60S WCI  -2
HARLAN  *      PTCLDY    10   7  85 NW8       30.65S WCI  -1
LAMONI         CLEAR     13   7  77 NW9       30.59S WCI   1
RED OAK *      CLEAR     14   9  79 NW7       30.64S WCI   4
SHENANDOAH *   CLEAR     14   7  73 N5        30.66S WCI   6
$$

IAZ047>049-059>061-072>074-084-090800-
   CENTRAL IOWA

CITY           SKY/WX    TMP DP  RH WIND       PRES   REMARKS
AMES           CLOUDY    15  10  80 NW13      30.57F WCI   1
ANKENY *       CLEAR     14   9  79 NW9G16    30.60S WCI   2
BOONE *        CLOUDY    12   7  79 NW10G17   30.56S WCI  -1
CHARITON *     CLEAR     14   9  79 NW8       30.57S WCI   3
DES MOINES     PTCLDY    15   8  73 NW12      30.59S WCI   2
GRINNELL*      FLURRIES  19  13  78 NW13      30.55S WCI   5
KNOXVILLE *    MOCLDY    14   9  79 W9        30.56S WCI   2
MARSHALLTOWN   CLOUDY    17  11  77 N14       30.55S WCI   3
NEWTON *       CLOUDY    18  10  73 NW13G20   30.55F WCI   4
PELLA *        FLURRIES  18  12  77 NW10      30.58S WCI   7
PERRY *          N/A     13  10  85 NW9       30.60R WCI   1
$$

IAZ004>006-015-016-023>025-035-036-090800-
   NORTH CENTRAL IOWA

CITY           SKY/WX    TMP DP  RH WIND       PRES   REMARKS
ALGONA *       FLURRIES  14   9  79 N13       30.55S WCI   0
CLARION *      CLOUDY    14   9  79 NW13G18   30.55F WCI   0
ESTHERVILLE    CLEAR      7   5  91 NW7       30.55S WCI  -5
FORT DODGE *   CLOUDY    10   3  72 W3        30.58R
MASON CITY     CLOUDY    14   8  77 NW13      30.55R WCI   0
FOREST CITY *  CLOUDY    14  10  85 NW10G17   30.53S WCI   1
WEBSTER CITY * FLURRIES  14  12  92 NW13      30.55S WCI   0
IOWA FALLS *   FLURRIES  16  10  78 NW16      30.55F WCI   1
$$

IAZ007>011-017>019-026>030-037>042-050>054-066-090800-
   NORTHEAST IOWA

CITY           SKY/WX    TMP DP  RH WIND       PRES   REMARKS
CEDAR RAPIDS   FLURRIES  18  15  88 NW16      30.52S WCI   3
CHARLES CITY * CLOUDY    16  10  79 NW13      30.52R WCI   2
CLINTON *      CLOUDY    20  14  77 NW17      30.49S WCI   5
DECORAH *      FLURRIES  18  14  86 NW10      30.47R WCI   6
DUBUQUE        CLOUDY    17  12  80 NW12      30.47R WCI   4
MONTICELLO *   CLOUDY    16  10  79 NW12      30.50S WCI   3
OELWEIN *      CLOUDY    16  12  86 W14       30.50S WCI   1
WATERLOO       PTCLDY    16   8  71 W10       30.53S WCI   4
$$

IAZ064-065-067-068-078-090800-
   EAST CENTRAL IOWA

CITY           SKY/WX    TMP DP  RH WIND       PRES   REMARKS
DAVENPORT      CLOUDY    20  12  71 NW14      30.51S WCI   7
IOWA CITY      CLOUDY    21  12  68 NW9G18    30.56R WCI  11
MUSCATINE *    FLURRIES  23  16  74 NW12      30.55S WCI  12
QUAD CITIES    CLOUDY    22  11  62 NW12      30.51F WCI  10
$$

IAZ062-063-075>077-085>089-095>099-090800-
   SOUTHEAST IOWA

CITY           SKY/WX    TMP DP  RH WIND       PRES   REMARKS
BURLINGTON     CLOUDY    22  13  68 NW10      30.54R WCI  11
FAIRFIELD *    CLOUDY    21  10  63 NW17      30.55S WCI   7
FORT MADISON * CLOUDY    21  12  68 N12       30.55S WCI   9
KEOKUK *       CLOUDY    21  14  73 NW6G14    30.55S WCI  14
OSKALOOSA *    FLURRIES  19  14  79 NW14      30.56S WCI   6
CENTERVILLE *    N/A     14   9  79 W8        30.58S WCI   3
WASHINGTON *   CLOUDY    21  12  68 NW15      30.56S WCI   8
$$

ABBREVIATIONS USED IN REMARKS
   TC - TEMPERATURES IN CELSIUS
  WCI - WIND CHILL INDEX
   HX - HEAT INDEX
  VSB - VISIBILITY
$$





USA.gov is the U.S. government's official web portal to all federal, state and local government web resources and services.